Simultaneous Nadir Overpasses (SNOs) Predictions

Prediction of SNOs between LANDSAT-8 and METOP-B Satellite Orbit:

Table of predicted SNOs for the next 14.0 days since TLE Epoch: 8/29/2015
Index Date (LANDSAT-8) Time (LANDSAT-8) Lat,Lon (LANDSAT-8) SZA (LANDSAT-8 ) Date (METOP-B) Time (METOP-B) Lat,Lon (METOP-B) SZA (METOP-B ) Distance(km) Time Diff (sec)
1 08/31/2015 02:34:28 81.14,-178.36 74.45 08/31/2015 02:34:12 81.14,-178.34 74.45 0.33 16
2 08/31/2015 03:23:54 -81.15, -10.49 105.51 08/31/2015 03:24:52 -81.16, -10.54 105.48 0.91 58
3 09/02/2015 21:19:02 -81.13, 80.29 104.56 09/02/2015 21:17:55 -81.13, 80.41 104.57 2.11 67
4 09/02/2015 22:08:27 81.15,-111.71 75.51 09/02/2015 22:08:34 81.15,-111.77 75.51 0.95 7
5 09/05/2015 16:52:49 -81.14, 147.11 103.47 09/05/2015 16:52:17 -81.13, 146.97 103.50 2.66 32
6
